Regional Weather Roundup
Issued by NWS

Home | Current Version | Previous Version | Text Only | Print | Product List | Glossary Off
Versions: 1 2 3 4 5 6 7 8 9 10 11 12 13 14 15 16 17 18 19 20 21 22 23 24 25 26 27 28 29 30 31 32 33 34 35 36 37 38 39 40 41 42 43 44 45 46 47 48 49 50

000
ASUS43 KTOP 022359
RWRKS

WEATHER ROUNDUP FOR KANSAS
NATIONAL WEATHER SERVICE GOODLAND KS
700 PM CDT TUE SEP 02 2014

NOTE:  "FAIR" INDICATES FEW OR NO CLOUDS BELOW 12,000 FEET WITH NO
SIGNIFICANT WEATHER AND/OR OBSTRUCTIONS TO VISIBILITY.

KSZ001>006-013>018-027>032-041>047-030100-
NORTHWEST KANSAS

CITY           SKY/WX    TMP DP  RH WIND       PRES   REMARKS
GOODLAND       SUNNY     83  57  41 S13G25    29.95F
6HR MIN TEMP:  79; 6HR MAX TEMP:  85;

HAYS           SUNNY     82  64  54 S14       29.91F
HILL CITY      SUNNY     83  66  56 S9        29.91F
6HR MIN TEMP:  82; 6HR MAX TEMP:  88;

RUSSELL        SUNNY     83  66  56 SE12      29.90F
6HR MIN TEMP:  81; 6HR MAX TEMP:  85;

$$

KSZ061>065-074>080-084>089-030100-
SOUTHWEST KANSAS

CITY           SKY/WX    TMP DP  RH WIND       PRES   REMARKS
DODGE CITY     PTSUNNY   82  65  56 SE9       29.93F
6HR MIN TEMP:  73; 6HR MAX TEMP:  86;

ELKHART          N/A     85  64  49 SE12        N/A
GARDEN CITY    MOSUNNY   81  63  54 S10       29.93F
6HR MIN TEMP:  72; 6HR MAX TEMP:  83;

GREAT BEND     SUNNY     82  66  57 S10       29.91F
LIBERAL        MOSUNNY   86  64  48 SE8       29.93F
$$

KSZ066>073-081>083-090>101-030100-
SOUTHEAST KANSAS

CITY           SKY/WX    TMP DP  RH WIND       PRES   REMARKS
CHANUTE        CLEAR     82  66  58 S8        29.94S
6HR MIN TEMP:  77; 6HR MAX TEMP:  86;

COFFEYVILLE    CLEAR     81  70  69 SE5       29.93S
6HR MIN TEMP:  74; 6HR MAX TEMP:  82;

HUTCHINSON     MOSUNNY   85  66  53 SE13      29.91F
6HR MIN TEMP:  82; 6HR MAX TEMP:  88;

NEWTON         SUNNY     82  64  54 SE9       29.96S
PARSONS        CLEAR     80  68  66 S3        29.95S
6HR MIN TEMP:  75; 6HR MAX TEMP:  82;

WICHITA INTL   MOSUNNY   84  68  58 SE9       29.91F
6HR MIN TEMP:  83; 6HR MAX TEMP:  88;

WICHITA JABRA  SUNNY     82  67  60 S7        29.92S
6HR MIN TEMP:  81; 6HR MAX TEMP:  86;

WINFIELD       SUNNY     82  71  69 SE6       29.93F
6HR MIN TEMP:  78; 6HR MAX TEMP:  85;

$$

KSZ007>012-019>026-033>040-048>060-102>105-030100-
NORTHEAST KANSAS

CITY           SKY/WX    TMP DP  RH WIND       PRES   REMARKS
CONCORDIA      SUNNY     81  67  62 SE6       29.91F
6HR MIN TEMP:  78; 6HR MAX TEMP:  84;

EMPORIA        CLEAR     82  68  62 SE6       29.93S
6HR MIN TEMP:  73; 6HR MAX TEMP:  84;

LAWRENCE       CLEAR     81  69  67 E3        29.93F
6HR MIN TEMP:  78; 6HR MAX TEMP:  83;

MANHATTAN      CLEAR     84  67  56 S5        29.91S
6HR MIN TEMP:  81; 6HR MAX TEMP:  87;

OLATHE IND     CLEAR     80  67  64 CALM      29.95S
6HR MIN TEMP:  75; 6HR MAX TEMP:  82;

OLATHE EXE     CLEAR     78  69  73 S5        29.94F
6HR MIN TEMP:  75; 6HR MAX TEMP:  80;

SALINA         SUNNY     85  67  54 S8        29.90F
6HR MIN TEMP:  84; 6HR MAX TEMP:  87;

TOPEKA BILLARD CLEAR     83  68  60 SE3       29.92F
6HR MIN TEMP:  80; 6HR MAX TEMP:  86;

TOPEKA FORBES  CLEAR     82  66  58 S3        29.93S
6HR MIN TEMP:  77; 6HR MAX TEMP:  83;

$$



USA.gov is the U.S. government's official web portal to all federal, state and local government web resources and services.